Calgary Springbank, Alberta

9:49 AM MDT on July 23, 2016 (GMT -0600)
Springbank

Weather History for CYBW - May, 2014

Change the Weather History Date:

Saturday, May 3, 2014

  Actual Average Record
Temperature  
Mean Temperature 29 °F -  
Max Temperature 32 °F 56 °F 80 °F (2016)
Min Temperature 26 °F 34 °F 17 °F (2002)
Degree Days  
Heating Degree Days 36    
Moisture  
Dew Point 27 °F    
Average Humidity 94    
Maximum Humidity 100    
Minimum Humidity 86    
Precipitation  
Precipitation 0.00 in - - ()
Sea Level Pressure  
Sea Level Pressure 30.16 in    
Wind  
Wind Speed 8 mph ()    
Max Wind Speed 17 mph    
Max Gust Speed 22 mph    
Visibility 4.6 miles    
Events Rain , Snow    
Averages and records for this station are not official NWS values.
T = Trace of Precipitation, MM = Missing Value Source: Averaged Metar Reports

Daily Weather History Graph

Daily Weather History Graph

Search for Another Location

Airport or City:

Trip Planner

Search our weather history database for the weather conditions in past years. The results will help you decide how hot, cold, wet, or windy it might be!

Date:

Astronomy

May. 03, 2014 Rise Set
Actual Time 6:06 AM MDT 9:03 PM MDT
Civil Twilight 5:28 AM MDT 9:41 PM MDT
Nautical Twilight 4:38 AM MDT 10:31 PM MDT
Astronomical Twilight 3:37 AM MDT 11:34 PM MDT
Moon 9:34 AM MDT (5/3) 12:33 AM MDT (5/3)
Length of Visible Light 16h 12m
Length of Day
14h 56m
Waxing Crescent, 20% of the Moon is Illuminated
May 3
Waxing Crescent
May 6
First Quarter
May 14
Full
May 21
Last Quarter
May 28
New

Hourly Weather History & Observations

Time (MDT) Temp. Windchill Dew Point Humidity Pressure Visibility Wind Dir Wind Speed Gust Speed Precip Events Conditions
12:00 AM 32.0 °F 24.8 °F - N/A% 30.23 in 1.0 mi NW 8.1 mph - N/A Snow Light Snow
12:21 AM 32.0 °F 24.2 °F - N/A% 30.23 in 1.0 mi North 9.2 mph - N/A Snow Light Snow
12:24 AM 32.0 °F 23.6 °F - N/A% 30.23 in 1.0 mi North 10.4 mph - N/A Snow Light Snow
12:30 AM 32.0 °F 25.6 °F - N/A% 30.23 in 1.2 mi NNW 6.9 mph - N/A Snow Light Snow
12:33 AM 32.0 °F 24.8 °F - N/A% 30.23 in 1.2 mi NNW 8.1 mph - N/A Snow Light Snow
12:35 AM 30.2 °F 24.3 °F - N/A% 30.23 in 1.2 mi NNW 5.8 mph - N/A Snow Light Snow
12:56 AM 30.2 °F 24.3 °F - N/A% 30.23 in 0.8 mi NNW 5.8 mph - N/A Snow Light Snow
1:00 AM 30.2 °F 24.3 °F - N/A% 30.24 in 0.8 mi NW 5.8 mph - N/A Snow Light Snow
1:06 AM 30.2 °F 24.3 °F - N/A% 30.24 in 1.0 mi WNW 5.8 mph - N/A Snow Light Snow
1:12 AM 30.2 °F 24.3 °F - N/A% 30.24 in 1.0 mi WNW 5.8 mph - N/A Snow Light Snow
1:16 AM 30.2 °F 25.4 °F - N/A% 30.24 in 0.8 mi NW 4.6 mph - N/A Snow Light Snow
1:28 AM 30.2 °F - - N/A% 30.23 in 0.8 mi North 2.3 mph - N/A Snow Light Snow
1:50 AM 30.2 °F 25.4 °F - N/A% 30.23 in 0.8 mi North 4.6 mph - N/A Snow Light Snow
2:00 AM 30.2 °F 23.4 °F - N/A% 30.23 in 0.5 mi NNW 6.9 mph - N/A Snow Snow
2:14 AM 30.2 °F 23.4 °F - N/A% 30.23 in 1.0 mi NW 6.9 mph - N/A Snow Light Snow
2:18 AM 30.2 °F 22.6 °F - N/A% 30.23 in 1.5 mi NW 8.1 mph - N/A Snow Light Snow
2:27 AM 30.2 °F 23.4 °F - N/A% 30.22 in 3.0 mi NNW 6.9 mph - N/A Snow Light Snow
2:34 AM 30.2 °F 23.4 °F - N/A% 30.22 in 3.0 mi NNW 6.9 mph - N/A Snow Light Snow
2:45 AM 30.2 °F 24.3 °F - N/A% 30.22 in 2.2 mi NW 5.8 mph - N/A Snow Light Snow
2:47 AM 30.2 °F 22.6 °F - N/A% 30.22 in 2.0 mi NW 8.1 mph - N/A Snow Light Snow
3:00 AM 30.2 °F 19.8 °F 30.2 °F 100% 30.23 in 1.0 mi NNE 13.8 mph - N/A Snow Light Snow
3:03 AM 30.2 °F 18.5 °F 30.2 °F 100% 30.23 in 0.8 mi NE 17.3 mph - N/A Snow Light Snow
3:04 AM 30.2 °F 18.9 °F 30.2 °F 100% 30.23 in 0.8 mi NE 16.1 mph - N/A Snow Light Snow
3:19 AM 28.4 °F 18.0 °F 28.4 °F 100% 30.23 in 1.0 mi ENE 12.7 mph 18.4 mph N/A Snow Light Snow
4:00 AM 28.4 °F 18.5 °F 28.4 °F 100% 30.23 in 1.2 mi ENE 11.5 mph 19.6 mph N/A Snow Light Snow
4:11 AM 28.4 °F 19.1 °F 28.4 °F 100% 30.23 in 3.0 mi ENE 10.4 mph - N/A Snow Light Snow
4:34 AM 28.4 °F 18.5 °F 26.6 °F 93% 30.24 in 3.0 mi ENE 11.5 mph 17.3 mph N/A Snow Light Snow
4:40 AM 28.4 °F 18.0 °F 26.6 °F 93% 30.24 in 2.2 mi ENE 12.7 mph - N/A Snow Light Snow
4:51 AM 28.4 °F 17.5 °F 26.6 °F 93% 30.24 in 1.5 mi ENE 13.8 mph - N/A Snow Light Snow
4:56 AM 28.4 °F 19.7 °F 26.6 °F 93% 30.24 in 1.8 mi ENE 9.2 mph - N/A Snow Light Snow
5:00 AM 28.4 °F 19.1 °F 26.6 °F 93% 30.24 in 2.0 mi ENE 10.4 mph - N/A Snow Light Snow
5:05 AM 28.4 °F 18.5 °F 26.6 °F 93% 30.24 in 2.5 mi East 11.5 mph - N/A Snow Light Snow
5:06 AM 28.4 °F 19.1 °F 26.6 °F 93% 30.24 in 3.0 mi East 10.4 mph - N/A Snow Light Snow
5:15 AM 26.6 °F 17.5 °F 26.6 °F 100% 30.24 in 6.0 mi East 9.2 mph - N/A Snow Light Snow
5:40 AM 26.6 °F 19.1 °F 26.6 °F 100% 30.24 in 5.0 mi East 6.9 mph - N/A Snow Light Snow
5:42 AM 26.6 °F 19.1 °F 26.6 °F 100% 30.24 in 3.0 mi East 6.9 mph - N/A Snow Light Snow
5:44 AM 26.6 °F 19.1 °F 26.6 °F 100% 30.24 in 2.2 mi ENE 6.9 mph - N/A Snow Light Snow
5:57 AM 26.6 °F 16.8 °F 26.6 °F 100% 30.24 in 1.0 mi East 10.4 mph - N/A Snow Light Snow
6:00 AM 26.6 °F 16.2 °F 26.6 °F 100% 30.24 in 1.5 mi East 11.5 mph - N/A Snow Light Snow
6:07 AM 26.6 °F 16.8 °F 26.6 °F 100% 30.24 in 3.0 mi East 10.4 mph - N/A Snow Light Snow
6:15 AM 26.6 °F 17.5 °F 26.6 °F 100% 30.24 in 2.5 mi East 9.2 mph - N/A Snow Light Snow
6:26 AM 26.6 °F 17.5 °F 26.6 °F 100% 30.24 in 3.0 mi East 9.2 mph - N/A Snow Light Snow
6:30 AM 26.6 °F 17.5 °F 26.6 °F 100% 30.24 in 4.0 mi East 9.2 mph - N/A Snow Light Snow
6:35 AM 26.6 °F 16.8 °F 26.6 °F 100% 30.24 in 6.0 mi East 10.4 mph - N/A Snow Light Snow
6:47 AM 26.6 °F 19.1 °F 26.6 °F 100% 30.24 in 9.0 mi ENE 6.9 mph - N/A Snow Light Snow
7:00 AM 26.6 °F 20.0 °F 26.6 °F 100% 30.24 in 9.0 mi ENE 5.8 mph - N/A Snow Light Snow
7:21 AM 26.6 °F 21.2 °F 26.6 °F 100% 30.24 in 9.0 mi ENE 4.6 mph - N/A Snow Light Snow
7:28 AM 26.6 °F 22.6 °F 26.6 °F 100% 30.24 in 9.0 mi East 3.5 mph - N/A Snow Light Snow
7:42 AM 26.6 °F 22.6 °F 24.8 °F 93% 30.24 in 5.0 mi East 3.5 mph - N/A Snow Light Snow
7:52 AM 26.6 °F 22.6 °F 24.8 °F 93% 30.24 in 2.5 mi ESE 3.5 mph - N/A Snow Light Snow
8:00 AM 26.6 °F 22.6 °F 26.6 °F 100% 30.23 in 2.5 mi ESE 3.5 mph - N/A Snow Light Snow
8:06 AM 26.6 °F 21.2 °F 26.6 °F 100% 30.23 in 2.0 mi ESE 4.6 mph - N/A Snow Light Snow
8:10 AM 26.6 °F 21.2 °F 26.6 °F 100% 30.23 in 2.0 mi ESE 4.6 mph - N/A Snow Light Snow
8:16 AM 26.6 °F 20.0 °F 26.6 °F 100% 30.23 in 3.0 mi ESE 5.8 mph - N/A Snow Light Snow
8:20 AM 26.6 °F 20.0 °F 26.6 °F 100% 30.23 in 3.0 mi ESE 5.8 mph - N/A Snow Light Snow
8:21 AM 26.6 °F 20.0 °F 26.6 °F 100% 30.23 in 4.0 mi ESE 5.8 mph - N/A Snow Light Snow
8:30 AM 26.6 °F 20.0 °F 24.8 °F 93% 30.23 in 6.0 mi ESE 5.8 mph - N/A Snow Light Snow
8:46 AM 26.6 °F 20.0 °F 24.8 °F 93% 30.23 in 5.0 mi ESE 5.8 mph - N/A Snow Light Snow
8:52 AM 26.6 °F 21.2 °F 24.8 °F 93% 30.22 in 2.5 mi ESE 4.6 mph - N/A Snow Light Snow
9:00 AM 26.6 °F 21.2 °F 24.8 °F 93% 30.22 in 2.0 mi ESE 4.6 mph - N/A Snow Light Snow
9:18 AM 28.4 °F 23.3 °F 24.8 °F 86% 30.22 in 3.0 mi ESE 4.6 mph - N/A Snow Light Snow
9:24 AM 28.4 °F 23.3 °F 26.6 °F 93% 30.22 in 3.0 mi ESE 4.6 mph - N/A Snow Light Snow
9:35 AM 28.4 °F 23.3 °F 24.8 °F 86% 30.22 in 5.0 mi ESE 4.6 mph - N/A Snow Light Snow
9:36 AM 28.4 °F 23.3 °F 24.8 °F 86% 30.22 in 5.0 mi ESE 4.6 mph - N/A Snow Light Snow
9:48 AM 28.4 °F 23.3 °F 24.8 °F 86% 30.22 in 3.0 mi SE 4.6 mph - N/A Snow Light Snow
9:55 AM 28.4 °F 22.2 °F 24.8 °F 86% 30.21 in 6.0 mi SE 5.8 mph - N/A Snow Light Snow
10:00 AM 28.4 °F 22.2 °F 26.6 °F 93% 30.21 in 9.0 mi SSE 5.8 mph - N/A Snow Light Snow
10:20 AM 28.4 °F 23.3 °F 26.6 °F 93% 30.20 in 5.0 mi SE 4.6 mph - N/A Snow Light Snow
10:28 AM 28.4 °F 21.2 °F 24.8 °F 86% 30.20 in 2.5 mi SE 6.9 mph - N/A Snow Light Snow
10:36 AM 28.4 °F 22.2 °F 24.8 °F 86% 30.19 in 2.0 mi SSE 5.8 mph - N/A Snow Light Snow
10:50 AM 28.4 °F 20.4 °F 26.6 °F 93% 30.19 in 3.0 mi ESE 8.1 mph - N/A Snow Light Snow
10:55 AM 28.4 °F 19.7 °F 26.6 °F 93% 30.19 in 7.0 mi SE 9.2 mph - N/A Snow Light Snow
11:00 AM 28.4 °F 19.7 °F 24.8 °F 86% 30.19 in 9.0 mi SE 9.2 mph - N/A Snow Light Snow
11:04 AM 28.4 °F 20.4 °F 24.8 °F 86% 30.19 in 9.0 mi SSE 8.1 mph - N/A Snow Light Snow
11:10 AM 28.4 °F 20.4 °F 24.8 °F 86% 30.19 in 5.0 mi SSE 8.1 mph - N/A Snow Light Snow
11:24 AM 28.4 °F 21.2 °F 26.6 °F 93% 30.18 in 4.0 mi SE 6.9 mph - N/A Snow Light Snow
11:25 AM 28.4 °F 20.4 °F 26.6 °F 93% 30.18 in 6.0 mi SE 8.1 mph - N/A Snow Light Snow
11:29 AM 28.4 °F 20.4 °F 26.6 °F 93% 30.18 in 8.0 mi SE 8.1 mph - N/A Snow Light Snow
12:00 PM 28.4 °F 19.1 °F 26.6 °F 93% 30.17 in 9.0 mi SE 10.4 mph - N/A Snow Light Snow
12:32 PM 30.2 °F 20.8 °F 26.6 °F 86% 30.15 in 9.0 mi SE 11.5 mph - N/A Snow Light Snow
12:34 PM 30.2 °F 20.8 °F 26.6 °F 86% 30.15 in 9.0 mi SE 11.5 mph - N/A Snow Light Snow
12:47 PM 28.4 °F 19.7 °F 26.6 °F 93% 30.15 in 5.0 mi SE 9.2 mph - N/A Snow Light Snow
12:56 PM 28.4 °F 17.5 °F 26.6 °F 93% 30.14 in 8.0 mi SSE 13.8 mph - N/A Snow Light Snow
1:00 PM 28.4 °F 18.0 °F 26.6 °F 93% 30.14 in 9.0 mi SSE 12.7 mph - N/A Snow Light Snow
1:28 PM 28.4 °F 17.5 °F 24.8 °F 86% 30.13 in 9.0 mi SSE 13.8 mph - N/A Snow Light Snow
1:40 PM 28.4 °F 18.5 °F 24.8 °F 86% 30.13 in 9.0 mi SE 11.5 mph - N/A Snow Light Snow
2:00 PM 28.4 °F 18.5 °F 26.6 °F 93% 30.12 in 9.0 mi SE 11.5 mph 18.4 mph N/A Snow Light Snow
2:11 PM 28.4 °F 18.5 °F 24.8 °F 86% 30.12 in 9.0 mi SE 11.5 mph - N/A Snow Light Snow
2:22 PM 30.2 °F 20.2 °F 26.6 °F 86% 30.12 in 9.0 mi SE 12.7 mph - N/A Snow Light Snow
2:23 PM 30.2 °F 20.2 °F 26.6 °F 86% 30.12 in 9.0 mi SE 12.7 mph - N/A Snow Light Snow
2:28 PM 30.2 °F 19.8 °F 26.6 °F 86% 30.11 in 9.0 mi SE 13.8 mph - N/A Snow Light Snow
2:34 PM 30.2 °F 19.8 °F 26.6 °F 86% 30.11 in 9.0 mi SE 13.8 mph - N/A Snow Light Snow
2:35 PM 30.2 °F 19.8 °F 26.6 °F 86% 30.10 in 9.0 mi SE 13.8 mph - N/A Snow Light Snow
2:39 PM 30.2 °F 19.8 °F 26.6 °F 86% 30.09 in 9.0 mi SE 13.8 mph - N/A   Overcast
2:45 PM 28.4 °F 17.0 °F 26.6 °F 93% 30.09 in 9.0 mi SE 15.0 mph - N/A Snow Light Snow
2:48 PM 28.4 °F 17.0 °F 26.6 °F 93% 30.09 in 5.0 mi SE 15.0 mph - N/A Snow Light Snow
2:56 PM 28.4 °F 17.0 °F 26.6 °F 93% 30.09 in 2.5 mi SE 15.0 mph - N/A Snow Light Snow
3:00 PM 28.4 °F 16.2 °F 26.6 °F 93% 30.09 in 3.0 mi SE 17.3 mph - N/A Snow Light Snow
3:08 PM 28.4 °F 17.5 °F 26.6 °F 93% 30.10 in 6.0 mi SE 13.8 mph 21.9 mph N/A Snow Light Snow
3:14 PM 28.4 °F 17.0 °F 26.6 °F 93% 30.09 in 9.0 mi ESE 15.0 mph - N/A Snow Light Snow
3:35 PM 30.2 °F 19.3 °F 26.6 °F 86% 30.07 in 9.0 mi SE 15.0 mph - N/A   Overcast
3:42 PM 30.2 °F 20.2 °F 26.6 °F 86% 30.08 in 9.0 mi SE 12.7 mph 18.4 mph N/A   Overcast
3:53 PM 30.2 °F 18.5 °F 26.6 °F 86% 30.07 in 9.0 mi SE 17.3 mph - N/A Snow Light Snow
4:00 PM 30.2 °F 19.3 °F 26.6 °F 86% 30.07 in 9.0 mi SE 15.0 mph - N/A Snow Light Snow
4:32 PM 30.2 °F 19.8 °F 26.6 °F 86% 30.07 in 9.0 mi ESE 13.8 mph - N/A Snow Light Snow
4:33 PM 30.2 °F 19.8 °F 26.6 °F 86% 30.07 in 9.0 mi ESE 13.8 mph - N/A Snow Light Snow
4:53 PM 28.4 °F 16.2 °F 26.6 °F 93% 30.05 in 6.0 mi SE 17.3 mph - N/A Snow Light Snow
5:00 PM 30.2 °F 18.5 °F 26.6 °F 86% 30.04 in 7.0 mi ESE 17.3 mph - N/A Snow Light Snow
5:33 PM 30.2 °F 19.8 °F 26.6 °F 86% 30.06 in 7.0 mi SE 13.8 mph - N/A Snow Light Snow
5:48 PM 30.2 °F 20.2 °F 26.6 °F 86% 30.06 in 5.0 mi SE 12.7 mph - N/A Snow Light Snow
5:58 PM 30.2 °F 20.8 °F 28.4 °F 93% 30.06 in 2.5 mi SE 11.5 mph - N/A Snow Light Snow
6:00 PM 30.2 °F 20.8 °F 28.4 °F 93% 30.07 in 2.2 mi SE 11.5 mph - N/A Snow Light Snow
6:12 PM 30.2 °F 21.9 °F 28.4 °F 93% 30.07 in 1.2 mi ESE 9.2 mph - N/A Snow Light Snow
6:15 PM 30.2 °F 22.6 °F 28.4 °F 93% 30.08 in 0.8 mi ESE 8.1 mph - N/A Snow Light Snow
6:27 PM 30.2 °F 21.9 °F 28.4 °F 93% 30.08 in 1.0 mi SE 9.2 mph - N/A Snow Light Snow
6:43 PM 30.2 °F 20.8 °F 28.4 °F 93% 30.07 in 3.0 mi ESE 11.5 mph - N/A Snow Light Snow
6:55 PM 30.2 °F 21.9 °F 28.4 °F 93% 30.06 in 2.5 mi SE 9.2 mph - N/A Snow Light Snow
7:00 PM 30.2 °F 22.6 °F 28.4 °F 93% 30.06 in 2.0 mi SE 8.1 mph - N/A Snow Light Snow
7:04 PM 30.2 °F 22.6 °F 28.4 °F 93% 30.06 in 2.0 mi ESE 8.1 mph - N/A Snow Light Snow
7:29 PM 30.2 °F 21.3 °F 28.4 °F 93% 30.05 in 3.0 mi ESE 10.4 mph - N/A Snow Light Snow
7:44 PM 30.2 °F 21.3 °F 28.4 °F 93% 30.04 in 6.0 mi ESE 10.4 mph - N/A Snow Light Snow
8:00 PM 30.2 °F 21.3 °F 28.4 °F 93% 30.04 in 7.0 mi ESE 10.4 mph - N/A Snow Light Snow
8:43 PM 30.2 °F 21.3 °F 28.4 °F 93% 30.05 in 9.0 mi SE 10.4 mph - N/A   Overcast
9:00 PM 30.2 °F 21.3 °F 28.4 °F 93% 30.05 in 9.0 mi ESE 10.4 mph - N/A   Overcast
9:18 PM 30.2 °F 21.9 °F 28.4 °F 93% 30.05 in 9.0 mi ESE 9.2 mph - N/A Snow Light Snow
9:58 PM 28.4 °F 19.7 °F 28.4 °F 100% 30.06 in 5.0 mi East 9.2 mph - N/A Snow Light Snow
10:00 PM 28.4 °F 19.7 °F 28.4 °F 100% 30.06 in 5.0 mi East 9.2 mph - N/A Snow Light Snow
10:14 PM 30.2 °F 21.3 °F 28.4 °F 93% 30.06 in 3.0 mi ESE 10.4 mph - N/A Snow Light Snow
10:16 PM 30.2 °F 21.3 °F 28.4 °F 93% 30.06 in 2.2 mi ESE 10.4 mph - N/A Snow Light Snow
10:27 PM 30.2 °F 21.9 °F 30.2 °F 100% 30.05 in 3.0 mi ESE 9.2 mph - N/A Snow Light Snow
11:00 PM 30.2 °F 21.9 °F 30.2 °F 100% 30.05 in 4.0 mi ESE 9.2 mph - N/A Snow Light Snow
11:11 PM 30.2 °F 22.6 °F 30.2 °F 100% 30.05 in 6.0 mi SE 8.1 mph - N/A Snow Light Snow
11:18 PM 30.2 °F 21.9 °F 30.2 °F 100% 30.05 in 5.0 mi ESE 9.2 mph - N/A Snow Light Snow
11:27 PM 30.2 °F 23.4 °F 30.2 °F 100% 30.05 in 6.0 mi SE 6.9 mph - N/A Snow Light Snow
11:37 PM 30.2 °F 23.4 °F 30.2 °F 100% 30.05 in 7.0 mi SE 6.9 mph - N/A Snow Light Snow
11:41 PM 30.2 °F 24.3 °F 30.2 °F 100% 30.05 in 7.0 mi SE 5.8 mph - N/A Rain , Snow Light Snow
11:42 PM 30.2 °F 24.3 °F 30.2 °F 100% 30.05 in 7.0 mi SE 5.8 mph - N/A Rain Light Freezing Rain
11:46 PM 30.2 °F 25.4 °F 30.2 °F 100% 30.05 in 7.0 mi SE 4.6 mph - N/A Rain Light Freezing Rain
11:47 PM 30.2 °F 24.3 °F 30.2 °F 100% 30.05 in 7.0 mi SE 5.8 mph - N/A Rain , Snow Light Snow
11:51 PM 30.2 °F 25.4 °F 30.2 °F 100% 30.05 in 5.0 mi SE 4.6 mph - N/A Rain , Snow Light Snow
11:52 PM 30.2 °F 25.4 °F 30.2 °F 100% 30.05 in 5.0 mi SE 4.6 mph - N/A Snow Light Snow